TimeCET,TemperatureF,Dew PointF,Humidity,Sea Level PressureIn,VisibilityMPH,Wind Direction,Wind SpeedMPH,Gust SpeedMPH,PrecipitationIn,Events,Conditions,WindDirDegrees,DateUTC
12:55 AM,32.0,28.4,87,30.42,6.2,North,3.5,-,N/A,,Mostly Cloudy,10,2013-12-20 23:55:00
1:55 AM,30.2,28.4,93,30.42,6.2,NNE,3.5,-,N/A,,Mostly Cloudy,20,2013-12-21 00:55:00
2:55 AM,28.4,26.6,93,30.45,6.2,North,3.5,-,N/A,,Scattered Clouds,10,2013-12-21 01:55:00
3:55 AM,28.4,24.8,86,30.45,-9999.0,North,3.5,-,N/A,,Clear,10,2013-12-21 02:55:00
4:55 AM,26.6,23.0,86,30.48,-9999.0,North,5.8,-,N/A,,Clear,10,2013-12-21 03:55:00
5:55 AM,24.8,23.0,93,30.48,-9999.0,North,5.8,-,N/A,,Clear,10,2013-12-21 04:55:00
6:55 AM,26.6,23.0,86,30.48,-9999.0,North,3.5,-,N/A,,Clear,10,2013-12-21 05:55:00
7:55 AM,26.6,23.0,86,30.48,-9999.0,Variable,1.2,-,N/A,,Clear,0,2013-12-21 06:55:00
8:55 AM,24.8,23.0,93,30.48,-9999.0,North,3.5,-,N/A,,Clear,10,2013-12-21 07:55:00
9:55 AM,26.6,24.8,93,30.48,-9999.0,North,4.6,-,N/A,,Clear,10,2013-12-21 08:55:00
10:55 AM,35.6,26.6,70,30.48,-9999.0,Variable,1.2,-,N/A,,Clear,0,2013-12-21 09:55:00
11:55 AM,37.4,26.6,65,30.48,-9999.0,South,3.5,-,N/A,,Clear,190,2013-12-21 10:55:00
12:55 PM,39.2,26.6,61,30.48,6.2,South,5.8,-,N/A,,Partly Cloudy,180,2013-12-21 11:55:00
1:55 PM,41.0,28.4,61,30.48,6.2,SSW,4.6,-,N/A,,Scattered Clouds,210,2013-12-21 12:55:00
2:55 PM,37.4,28.4,70,30.45,6.2,SSW,3.5,-,N/A,,Scattered Clouds,210,2013-12-21 13:55:00
3:55 PM,33.8,28.4,81,30.45,6.2,SSW,4.6,-,N/A,,Scattered Clouds,200,2013-12-21 14:55:00
4:55 PM,32.0,28.4,87,30.45,6.2,SSW,3.5,-,N/A,,Mostly Cloudy,200,2013-12-21 15:55:00
5:55 PM,32.0,28.4,87,30.45,6.2,South,3.5,-,N/A,,Mostly Cloudy,190,2013-12-21 16:55:00
6:55 PM,32.0,30.2,93,30.45,6.2,SSW,5.8,-,N/A,,Scattered Clouds,210,2013-12-21 17:55:00
7:55 PM,32.0,30.2,93,30.45,6.2,South,8.1,-,N/A,,Scattered Clouds,190,2013-12-21 18:55:00
8:55 PM,32.0,30.2,93,30.45,6.2,SSW,8.1,-,N/A,,Scattered Clouds,200,2013-12-21 19:55:00
9:55 PM,32.0,30.2,93,30.45,6.2,South,5.8,-,N/A,,Scattered Clouds,190,2013-12-21 20:55:00
10:55 PM,32.0,28.4,87,30.45,6.2,South,6.9,-,N/A,,Mostly Cloudy,190,2013-12-21 21:55:00
11:55 PM,32.0,28.4,87,30.45,6.2,SSW,5.8,-,N/A,,Mostly Cloudy,210,2013-12-21 22:55:00